Das Wetter in  D-61279 Heinzenberg / Taunus





Wetter Minimum- & Maximum-Werte im September 2015

Standort: Heinzenberg / Taunus - Höhe 297 m         8° 24' 1" Ost 50° 21' 51" Nord
(   3-stündige Aktualisierung    letzte Aktualisierung um 20:46 am 30.09.2015  )


Messgrösse

Minimum

Maximum

Durchschnitt

Temperatur West /
Luftfeuchte West
Anklicken für Monats-Diagramm

2,8 °C

08:04
28.09.2015

38 %

16:18
11.09.2015

24,7 °C

14:54
12.09.2015

92 %

06:45
18.09.2015

Temp

13,3 °C

Feuchte

74 %

Temperatur Ost /
Luftfeuchte Ost
Anklicken für Monats-Diagramm

3,3 °C

07:34
28.09.2015

--

--
--

23,6 °C

00:04
01.09.2015

--

--
--

13,3 °C

--

Luftdruck Anklicken für Monats-Diagramm

995,4 hPa

18:23
16.09.2015

1037,5 hPa

08:39
28.09.2015

1017,8 hPa

Taupunkt

0,5 °C

07:34
28.09.2015

18,0 °C

10:39
01.09.2015

8,6 °C

Windchill
( gefühlte Temperatur )

0,1 °C

09:04
06.09.2015

24,2 °C

14:39
12.09.2015

11,7 °C

Windgeschwindigkeit /
Windrichtung
Anklicken für Monats-Diagramm

---

48,6 km/h / W-SW

15:32
15.09.2015

7,5 km/h
W-SW

Helligkeit /
Sonnenschein
Anklicken für Monats-Diagramm
Anklicken für Monats-Diagramm

Sonnenschein:

126:37 Stunden

Max: 9:51 Std am
30.09.2015

91 klux

13:48
05.09.2015

24,0 klux

Solarstrahlung Anklicken für Monats-Diagramm

---

619 W/m²

13:48
05.09.2015

177 W/m²

Regenmenge
    September 2015
Anklicken für Monats-Diagramm

Insgesamt 55,5 l/m²

in 44:35 Stunden
an 15 Tagen

13,1 l/m²

19:43
16.09.2015

Gesamtmenge

55,5 l/m²

Regen-Tage
    September 2015
Anklicken für Monats-Diagramm

>   0 mm/Tag

>   2 mm/Tag

>   5 mm/Tag

> 10 mm/Tag

> 20 mm/Tag

15 Tage     
6 Tage     
4 Tage     
3 Tage     
0 Tage     

Eisige Tage September 2015 / 2014

Tmin ≤ -10°C     

0 Tage

/

0 Tage

Eistage September 2015 / 2014

Tmax <     0°C     

0 Tage

/

0 Tage

Frosttage September 2015 / 2014

Tmin ≤     0°C     

0 Tage

/

0 Tage

Kalte Tage September 2015 / 2014

Tmax <   10°C     

0 Tage

/

0 Tage

Warme Tage September 2015 / 2014

Tmax ≥   20°C     

13 Tage

/

16 Tage

Sommertage September 2015 / 2014

Tmax ≥   25°C     

0 Tage

/

4 Tage

Heisse Tage September 2015 / 2014

Tmax ≥   30°C     

0 Tage

/

0 Tage


Monatsdiagramm September 2015

Die Kurven zeigen den Durchschnittswert des jeweiligen Tages an


Wetter-Monatsübersicht September 2015
Datum
  Temperatur
   Luftdruck
   Wind
  Regen
   Luftfeuchte
   Helligkeit

Sonnen-
schein

Ø
Temp.

Min.
Temp.

Max.
Temp.

Ø
Luftdruck

Min.
Luftdruck

Max.
Luftdruck

Ø-Geschw.
Haupt-Richtg.

Max.
Wind

Menge /
Dauer

Ø
Feuchte

Min.
Feuchte

Max.
Feuchte

Ø
Helligkeit

Max.
Helligkeit

1.
September
17,5 °C12,4 °C
23:50
23,2 °C
00:04
1011,3 hPa1007,3 hPa
11:04
1017,6 hPa
23:50
5,2 km/h
W-NW
44,2 km/h
11:54  
12,2 l/m²
4:20 Stunden
82 %54 %
00:04
89 %
14:29
11,0 klux50,2 klux
10:29
1:01 Std 
2.
September
14,9 °C10,5 °C
07:30
21,0 °C
18:30
1016,5 hPa1014,5 hPa
18:30
1018,9 hPa
08:00
2,5 km/h
W-SW
15,9 km/h
12:25  
0,2 l/m²
5 Minuten
76 %57 %
15:45
90 %
02:55
27,3 klux81,1 klux
13:15
4:16 Std 
3.
September
14,3 °C7,9 °C
07:36
21,7 °C
16:36
1014,1 hPa1012,4 hPa
16:36
1015,7 hPa
02:41
5,2 km/h
W-NW
29,9 km/h
17:21  
---
15 Minuten
69 %41 %
17:16
89 %
08:41
32,9 klux78,4 klux
13:51
7:45 Std 
4.
September
13,4 °C10,0 °C
07:42
18,9 °C
15:47
1015,0 hPa1013,8 hPa
17:27
1016,4 hPa
11:17
12,2 km/h
W
35,0 km/h
11:42  
---
66 %47 %
15:52
82 %
08:12
30,0 klux83,1 klux
12:47
5:15 Std 
5.
September
12,1 °C9,1 °C
03:03
17,6 °C
16:08
1016,0 hPa1014,7 hPa
07:43
1018,9 hPa
23:59
15,6 km/h
W
34,9 km/h
14:28  
1,7 l/m²
2:25 Stunden
77 %57 %
16:08
87 %
20:18
19,5 klux90,5 klux
13:48
1:35 Std 
6.
September
11,2 °C8,4 °C
05:59
17,6 °C
16:19
1022,0 hPa1018,9 hPa
00:04
1025,1 hPa
22:35
16,5 km/h
W-NW
38,1 km/h
16:24  
---
75 %54 %
15:54
87 %
01:59
25,7 klux88,9 klux
12:44
3:30 Std 
7.
September
12,5 °C10,4 °C
04:35
15,7 °C
15:20
1024,7 hPa1023,9 hPa
09:35
1025,9 hPa
23:46
13,7 km/h
W
26,8 km/h
15:20  
---
30 Minuten
81 %74 %
15:15
86 %
08:10
15,1 klux63,9 klux
15:10
15 Min 
8.
September
14,1 °C10,6 °C
03:11
19,3 °C
15:36
1024,6 hPa1022,0 hPa
19:11
1026,1 hPa
03:11
2,1 km/h
SO
12,6 km/h
10:46  
---
74 %53 %
15:41
90 %
08:56
22,4 klux79,3 klux
11:56
2:40 Std 
9.
September
15,3 °C10,3 °C
07:27
23,6 °C
15:47
1022,4 hPa1020,4 hPa
15:47
1024,0 hPa
00:32
4,2 km/h
NO
23,3 km/h
13:22  
---
66 %40 %
16:42
87 %
08:42
36,1 klux83,1 klux
12:57
8:25 Std 
10.
September
12,9 °C4,4 °C
07:18
22,4 °C
14:48
1021,6 hPa1018,6 hPa
16:53
1024,6 hPa
08:58
4,1 km/h
NO
22,6 km/h
16:13  
---
65 %43 %
14:53
85 %
09:48
33,9 klux79,9 klux
13:33
8:50 Std 
11.
September
12,7 °C4,1 °C
07:13
23,4 °C
16:43
1017,9 hPa1015,3 hPa
16:43
1020,4 hPa
03:13
2,3 km/h
SO
17,6 km/h
12:43  
---
65 %38 %
16:18
86 %
09:13
30,6 klux68,8 klux
13:28
7:31 Std 
12.
September
14,9 °C6,8 °C
07:39
24,7 °C
14:54
1014,5 hPa1011,2 hPa
17:29
1017,3 hPa
07:39
6,3 km/h
SW
28,9 km/h
12:29  
0,2 l/m²
1:05 Stunden
70 %49 %
14:54
85 %
09:09
24,3 klux77,5 klux
11:54
3:35 Std 
13.
September
17,3 °C13,6 °C
23:41
21,0 °C
18:35
1009,7 hPa1004,8 hPa
21:30
1013,0 hPa
04:00
3,4 km/h
SO
20,0 km/h
11:20  
2,7 l/m²
2:30 Stunden
80 %73 %
10:20
87 %
23:36
15,5 klux50,5 klux
10:05
1:40 Std 
14.
September
16,0 °C12,4 °C
23:52
22,2 °C
14:16
1003,9 hPa1001,2 hPa
16:26
1007,3 hPa
23:52
12,7 km/h
SW
38,0 km/h
17:06  
1,1 l/m²
1:55 Stunden
77 %53 %
14:26
90 %
02:26
23,1 klux89,5 klux
12:16
3:05 Std 
15.
September
13,3 °C10,3 °C
06:22
19,1 °C
17:32
1007,0 hPa1005,1 hPa
22:43
1008,5 hPa
05:52
18,8 km/h
W-SW
48,6 km/h
15:32  
0,3 l/m²
1:20 Stunden
71 %54 %
17:27
79 %
05:32
20,1 klux69,5 klux
15:12
3:40 Std 
16.
September
14,7 °C11,6 °C
04:18
20,6 °C
17:03
999,3 hPa995,4 hPa
18:23
1005,2 hPa
00:03
14,6 km/h
O-SO
31,8 km/h
19:58  
13,1 l/m²
10:00 Stunden
82 %70 %
01:53
88 %
09:38
10,5 klux62,2 klux
15:28
20 Min 
17.
September
13,8 °C11,5 °C
23:55
16,1 °C
00:04
1002,9 hPa997,7 hPa
01:44
1012,5 hPa
23:55
18,4 km/h
W-SW
40,4 km/h
10:59  
6,5 l/m²
8:46 Stunden
86 %82 %
08:19
89 %
23:20
6,7 klux21,7 klux
10:14
--- 
18.
September
13,1 °C8,7 °C
04:10
19,2 °C
13:45
1015,8 hPa1012,5 hPa
00:00
1018,9 hPa
23:45
4,1 km/h
W-SW
28,8 km/h
14:20  
4,6 l/m²
1:10 Stunden
82 %64 %
13:35
92 %
06:45
22,4 klux81,4 klux
13:40
2:50 Std 
19.
September
13,5 °C10,4 °C
00:25
18,8 °C
15:00
1020,7 hPa1018,6 hPa
03:40
1023,9 hPa
23:41
4,1 km/h
W
19,8 km/h
16:15  
---
78 %62 %
15:00
87 %
02:00
18,9 klux69,9 klux
14:55
1:20 Std 
20.
September
12,8 °C9,9 °C
05:01
19,0 °C
14:56
1023,9 hPa1022,6 hPa
19:01
1025,1 hPa
07:21
5,4 km/h
NW
23,0 km/h
12:51  
---
76 %53 %
15:01
89 %
06:26
23,1 klux83,1 klux
13:46
2:30 Std 
21.
September
13,1 °C7,5 °C
08:22
21,1 °C
15:57
1016,8 hPa1010,5 hPa
22:58
1023,0 hPa
00:32
4,7 km/h
W-SW
26,8 km/h
13:57  
---
71 %44 %
16:07
88 %
09:27
32,8 klux75,7 klux
13:02
6:55 Std 
22.
September
12,4 °C9,0 °C
23:59
16,9 °C
17:23
1004,6 hPa1000,5 hPa
17:23
1010,5 hPa
00:03
9,6 km/h
W-SW
27,8 km/h
07:48  
11,6 l/m²
5:34 Stunden
79 %72 %
16:53
89 %
15:58
14,5 klux67,9 klux
16:18
1:45 Std 
23.
September
10,8 °C7,6 °C
01:24
15,5 °C
16:49
1009,1 hPa1003,5 hPa
00:04
1016,8 hPa
23:55
8,2 km/h
W-SW
29,1 km/h
12:14  
1,4 l/m²
4:25 Stunden
86 %77 %
16:59
90 %
23:40
16,4 klux73,0 klux
11:49
1:10 Std 
24.
September
12,7 °C8,2 °C
07:20
17,9 °C
16:10
1018,7 hPa1016,7 hPa
00:20
1020,9 hPa
23:21
7,5 km/h
W-SW
25,3 km/h
16:20  
0,2 l/m²
15 Minuten
78 %60 %
18:10
91 %
08:35
28,4 klux77,5 klux
12:00
5:50 Std 
25.
September
12,9 °C8,3 °C
02:31
20,1 °C
16:41
1021,6 hPa1019,9 hPa
00:01
1023,9 hPa
23:57
3,3 km/h
NW
18,8 km/h
14:21  
---
73 %45 %
16:46
89 %
10:06
28,0 klux74,8 klux
13:36
4:34 Std 
26.
September
12,8 °C9,5 °C
07:32
19,2 °C
17:07
1025,5 hPa1023,9 hPa
00:02
1028,2 hPa
23:48
2,4 km/h
NO
25,4 km/h
17:22  
---
74 %49 %
17:07
87 %
08:52
19,8 klux66,2 klux
11:32
1:20 Std 
27.
September
12,0 °C5,2 °C
08:08
19,6 °C
15:18
1031,1 hPa1028,1 hPa
00:13
1034,5 hPa
23:59
3,3 km/h
NO
24,0 km/h
12:38  
---
69 %45 %
15:08
87 %
09:13
30,0 klux76,9 klux
14:38
7:20 Std 
28.
September
11,0 °C2,8 °C
08:04
20,4 °C
16:24
1035,3 hPa1033,2 hPa
16:24
1037,5 hPa
08:39
3,8 km/h
SO
22,1 km/h
13:09  
---
66 %41 %
16:34
87 %
09:09
34,7 klux70,4 klux
13:09
9:35 Std 
29.
September
10,6 °C3,3 °C
07:44
19,1 °C
15:29
1034,4 hPa1031,5 hPa
18:34
1036,4 hPa
07:44
6,2 km/h
SO
25,1 km/h
12:44  
---
68 %47 %
14:39
85 %
09:29
31,9 klux77,7 klux
13:29
8:14 Std 
30.
September
11,4 °C3,8 °C
07:35
19,8 °C
15:45
1032,5 hPa1030,2 hPa
15:45
1034,3 hPa
10:35
5,5 km/h
NO
34,0 km/h
15:15  
---
63 %41 %
15:50
82 %
08:20
33,8 klux64,6 klux
12:25
9:51 Std 



September
2015

Temperatur

  

Luftdruck

  

Wind

  

Regen

  

Luftfeuchte

  

Helligkeit

Sonnen-
schein

Ø

Min

Max

Ø

Min

Max

Ø

Max

Max

Ø

Min

Max

Ø

Max

Max

13,3 °C

2,8 °C

08:04 Uhr
28.09.2015

24,7 °C

14:54 Uhr
12.09.2015

1017,8 hPa

995,4 hPa

18:23 Uhr
16.09.2015

1037,5 hPa

08:39 Uhr
28.09.2015

7,5 km/h

W-SW

48,6 km/h

15:32 Uhr
15.09.2015

13,1 l/m²

10:00 Stunden
16.09.2015

74 %

38 %

16:18 Uhr
11.09.2015

92 %

06:45 Uhr
18.09.2015

24,0 klux

90,5 klux

13:48 Uhr
05.09.2015

9:51 Std

am
30.09.2015

Gesamt

Gesamt

55,5 l/m²

15 Tage
44:35 h

126:37 Std


Wetter-Diagramme September 2015     Heinzenberg / Taunus   
TemperaturLuftfeuchte
SolarstrahlungLuftdruck
HelligkeitSonnenschein
RegenmengeRegendauer
Wind-GeschwindigkeitWind-Richtung